Skip Page Navigation
NASA JPL Caltech
NASA Logo - Jet Propulsion Laboratory + View the NASA Portal
+ Near-Earth Object (NEO) Program
Search JPL
JPL Home Earth Solar System Stars & Galaxies Technology
JPL Solar System Dynamics
BODIES ORBITS EPHEMERIDES TOOLS PHYSICAL DATA DISCOVERY FAQ SITE MAP
JPL Small-Body Database Browser
Search: [ help ]  
132824 Galamb (2002 QE79)
Classification: Main-belt Asteroid          SPK-ID: 2132824
Ephemeris | Orbit Diagram | Orbital Elements | Physical Parameters | Discovery Circumstances ]

[ show orbit diagram ]
Orbital Elements at Epoch 2456400.5 (2013-Apr-18.0) TDB
Reference: MPO251213 (heliocentric ecliptic J2000)
 Element Value Uncertainty (1-sigma)   Units 
e 0.0820005 n/a  
a 2.8904923 n/a AU
q 2.6534705 n/a AU
i 3.14217 n/a deg
node 82.95788 n/a deg
peri 296.47957 n/a deg
M 11.93924 n/a deg
tp 2456340.9707617
(2013-Feb-17.47076170)
n/a JED
period 1794.9656598
4.91
n/a
n/a
d
yr
n 0.20056094 n/a deg/d
Q 3.1275141 n/a AU
  Orbit Determination Parameters
   # obs. used (total)      83  
   first obs. used      2001-??-??  
   last obs. used      2012-12-31  
   # oppositions      8  
   planetary ephem.      DE403  
   condition code      0  
   fit RMS      0.34  
   data source      MPC:mpu  
   producer      MPCLINUX  

Additional Information
 T_jup = 3.284 

Ephemeris | Orbit Diagram | Orbital Elements | Physical Parameters | Discovery Circumstances ]

Physical Parameter Table
Parameter Symbol Value Units Sigma Reference Notes
absolute magnitude H 16.5 mag n/a MPO251213  

132824 Galamb           Discovered 2002 Aug. 17 by K. Sárneczky on NEAT images taken at Palomar.
József Galamb (1881-1955) was a Hungarian-born U.S. mechanical engineer who joined the Ford Motor Company as a designer in 1905. After redesigning the cooling system for the Model N, he became the company's chief designer and devised many of the parts of the Model T. He invented the production line in 1913.
NOTE: some special characters may not display properly (any characters within {} are an attempt to place the proper accent above a character)
Reference: 20100330/MPCPages.arcLast Updated: 2010-04-05

Alternate Designations
 2002 QE79 = 2003 YF174 
Ephemeris | Orbit Diagram | Orbital Elements | Physical Parameters | Discovery Circumstances ]
ABOUT SSD CREDITS/AWARDS PRIVACY/COPYRIGHT GLOSSARY LINKS
FirstGov 2013-May-24 15:29 UT
(server date/time)  
NASA Home Page
Site Manager:   Donald K. Yeomans
Webmaster  Alan B. Chamberlin